Total_Precipitation_Accumulation
0.04 0.06 0.07 0.09 0.09 0.06 0.04 0.02 0.03 0.03 0.03 0.03 0.03 0.04 0.04 0.04 0.03 0.06 0.04 0.01 0.01 0.02 0.04 0.07 0.08 0.09 0.09 0.09 0.07 0.06 0.06 0.09 0.12 0.15 0.20 0.22 0.18 0.15 0.15 0.17 0.16 0.19 0.21 0.20 0.16 0.12 0.07 0.04 0.02
0.07 0.09 0.15 0.18 0.09 0.05 0.02 0.01 0.02 0.03 0.03 0.04 0.04 0.05 0.06 0.06 0.05 0.04 0.05 0.03 0.01 0.02 0.04 0.06 0.08 0.09 0.09 0.08 0.06 0.05 0.06 0.09 0.12 0.15 0.21 0.20 0.17 0.16 0.15 0.14 0.14 0.14 0.12 0.09 0.06 0.04 0.01 0.01 0.00
0.13 0.18 0.28 0.20 0.08 0.03 0.02 0.01 0.01 0.03 0.04 0.05 0.06 0.07 0.12 0.13 0.10 0.08 0.06 0.05 0.03 0.04 0.05 0.08 0.09 0.10 0.09 0.07 0.06 0.06 0.07 0.10 0.12 0.16 0.19 0.18 0.17 0.16 0.14 0.12 0.10 0.09 0.05 0.03 0.02 0.01 0.00 0.00 0.00
0.21 0.33 0.37 0.20 0.07 0.02 0.01 0.00 0.01 0.03 0.06 0.06 0.08 0.14 0.20 0.17 0.16 0.11 0.08 0.09 0.08 0.07 0.09 0.12 0.11 0.12 0.10 0.08 0.08 0.08 0.10 0.11 0.14 0.17 0.19 0.19 0.19 0.18 0.18 0.14 0.08 0.05 0.02 0.01 0.01 0.00 0.00 0.00 0.00
0.33 0.45 0.35 0.18 0.05 0.01 0.00 0.00 0.01 0.03 0.06 0.08 0.10 0.19 0.29 0.26 0.26 0.25 0.18 0.17 0.15 0.14 0.17 0.18 0.15 0.14 0.11 0.09 0.09 0.10 0.12 0.15 0.18 0.18 0.18 0.20 0.19 0.16 0.15 0.13 0.06 0.03 0.02 0.01 0.01 0.00 0.00 0.00 0.00
0.51 0.50 0.34 0.17 0.05 0.01 0.00 0.00 0.01 0.03 0.05 0.09 0.14 0.27 0.36 0.41 0.46 0.46 0.38 0.31 0.27 0.25 0.27 0.27 0.23 0.21 0.16 0.13 0.11 0.11 0.14 0.18 0.21 0.21 0.20 0.21 0.19 0.15 0.11 0.10 0.05 0.02 0.02 0.01 0.01 0.01 0.01 0.00 0.00
0.52 0.45 0.28 0.13 0.04 0.01 0.00 0.01 0.01 0.02 0.04 0.08 0.13 0.33 0.44 0.56 0.67 0.72 0.71 0.60 0.52 0.48 0.46 0.40 0.31 0.26 0.21 0.17 0.13 0.12 0.15 0.20 0.21 0.22 0.22 0.23 0.21 0.16 0.10 0.07 0.04 0.02 0.02 0.02 0.01 0.01 0.01 0.01 0.01
0.54 0.58 0.30 0.13 0.07 0.02 0.01 0.01 0.02 0.02 0.04 0.07 0.13 0.31 0.45 0.56 0.81 0.99 1.05 1.02 0.89 0.80 0.72 0.62 0.47 0.35 0.28 0.23 0.18 0.16 0.17 0.21 0.22 0.19 0.16 0.15 0.17 0.17 0.12 0.06 0.04 0.02 0.02 0.02 0.02 0.02 0.02 0.02 0.01
0.69 0.83 0.38 0.11 0.06 0.05 0.02 0.02 0.03 0.04 0.07 0.12 0.17 0.22 0.40 0.63 0.92 1.21 1.33 1.38 1.29 1.11 0.98 0.83 0.67 0.55 0.39 0.30 0.24 0.20 0.19 0.22 0.22 0.16 0.12 0.10 0.12 0.13 0.10 0.05 0.03 0.03 0.02 0.02 0.02 0.02 0.02 0.01 0.00
0.83 0.73 0.29 0.09 0.09 0.10 0.09 0.06 0.06 0.09 0.13 0.18 0.25 0.33 0.54 0.81 1.08 1.27 1.40 1.40 1.38 1.23 1.12 1.00 0.83 0.69 0.56 0.43 0.31 0.26 0.22 0.20 0.18 0.13 0.10 0.08 0.08 0.07 0.05 0.05 0.03 0.03 0.03 0.02 0.01 0.01 0.01 0.00 0.00
0.59 0.38 0.19 0.18 0.19 0.21 0.20 0.15 0.13 0.14 0.15 0.14 0.20 0.34 0.61 0.88 1.16 1.29 1.41 1.42 1.43 1.43 1.34 1.19 1.03 0.88 0.74 0.56 0.37 0.29 0.24 0.21 0.19 0.14 0.11 0.08 0.07 0.07 0.05 0.04 0.04 0.04 0.02 0.01 0.00 0.00 0.00 0.00 0.00
0.39 0.23 0.22 0.27 0.31 0.33 0.30 0.24 0.22 0.17 0.12 0.11 0.20 0.34 0.57 0.88 1.08 1.12 1.19 1.29 1.43 1.53 1.44 1.37 1.27 1.10 0.93 0.70 0.49 0.34 0.28 0.23 0.20 0.16 0.13 0.10 0.07 0.05 0.04 0.03 0.02 0.02 0.02 0.01 0.00 0.00 0.00 0.00 0.00
0.28 0.22 0.27 0.36 0.41 0.40 0.38 0.34 0.26 0.18 0.16 0.21 0.34 0.49 0.61 0.86 1.09 1.20 1.14 1.17 1.35 1.41 1.43 1.35 1.29 1.18 1.04 0.84 0.62 0.42 0.33 0.26 0.23 0.21 0.17 0.12 0.08 0.06 0.04 0.03 0.02 0.02 0.01 0.00 0.00 0.00 0.00 0.00 0.00
0.21 0.27 0.36 0.44 0.48 0.47 0.51 0.45 0.34 0.23 0.26 0.37 0.47 0.60 0.69 0.81 1.06 1.25 1.24 1.19 1.23 1.31 1.37 1.37 1.30 1.19 1.12 0.97 0.74 0.51 0.39 0.33 0.30 0.25 0.19 0.14 0.11 0.08 0.07 0.04 0.03 0.01 0.01 0.00 0.00 0.00 0.00 0.00 0.00
0.29 0.45 0.53 0.59 0.60 0.61 0.67 0.68 0.40 0.30 0.32 0.38 0.44 0.58 0.74 0.85 1.00 1.11 1.11 1.14 1.17 1.30 1.39 1.37 1.34 1.28 1.12 1.02 0.89 0.70 0.53 0.41 0.34 0.31 0.24 0.19 0.13 0.09 0.07 0.05 0.03 0.02 0.01 0.00 0.00 0.00 0.00 0.00 0.00
0.47 0.57 0.60 0.55 0.66 0.74 0.86 0.79 0.41 0.36 0.35 0.34 0.37 0.45 0.62 0.81 0.96 1.11 1.13 1.17 1.25 1.36 1.44 1.44 1.34 1.27 1.16 1.04 0.97 0.84 0.67 0.52 0.40 0.37 0.31 0.24 0.19 0.13 0.10 0.06 0.05 0.04 0.02 0.01 0.01 0.01 0.01 0.01 0.01
0.59 0.51 0.45 0.47 0.57 0.75 0.81 0.72 0.49 0.40 0.37 0.32 0.33 0.39 0.50 0.66 0.86 1.09 1.15 1.26 1.34 1.40 1.49 1.53 1.49 1.38 1.32 1.28 1.14 1.03 0.89 0.67 0.55 0.47 0.39 0.30 0.24 0.20 0.15 0.10 0.07 0.06 0.05 0.03 0.02 0.02 0.03 0.03 0.03
0.40 0.36 0.35 0.43 0.45 0.63 0.64 0.55 0.52 0.43 0.40 0.34 0.31 0.35 0.44 0.55 0.66 0.87 1.07 1.26 1.46 1.55 1.65 1.65 1.62 1.58 1.64 1.64 1.49 1.25 1.07 0.84 0.68 0.59 0.46 0.42 0.35 0.29 0.22 0.15 0.13 0.11 0.08 0.07 0.06 0.06 0.06 0.07 0.08
0.31 0.29 0.29 0.33 0.37 0.50 0.53 0.46 0.52 0.45 0.38 0.37 0.34 0.33 0.38 0.48 0.62 0.80 0.98 1.19 1.43 1.63 1.72 1.74 1.68 1.69 1.72 1.69 1.52 1.31 1.10 1.01 0.87 0.75 0.65 0.58 0.54 0.51 0.39 0.25 0.23 0.21 0.16 0.15 0.15 0.14 0.13 0.12 0.13
0.34 0.33 0.33 0.32 0.36 0.46 0.49 0.45 0.44 0.41 0.36 0.36 0.40 0.35 0.35 0.43 0.54 0.63 0.82 1.01 1.27 1.52 1.72 1.81 1.81 1.82 1.70 1.56 1.59 1.53 1.45 1.29 1.17 1.08 0.94 0.76 0.67 0.65 0.57 0.47 0.41 0.37 0.32 0.27 0.26 0.25 0.21 0.18 0.20
0.29 0.29 0.29 0.32 0.40 0.43 0.49 0.50 0.39 0.35 0.32 0.32 0.36 0.34 0.35 0.43 0.49 0.54 0.65 0.76 1.02 1.29 1.59 1.75 1.86 1.90 1.89 1.84 1.96 1.89 1.75 1.49 1.22 1.04 0.99 0.94 0.87 0.82 0.75 0.70 0.65 0.60 0.53 0.46 0.44 0.43 0.37 0.32 0.30
0.28 0.19 0.26 0.33 0.50 0.53 0.50 0.57 0.31 0.29 0.33 0.35 0.39 0.39 0.39 0.43 0.50 0.55 0.61 0.68 0.84 1.08 1.31 1.50 1.75 1.92 2.01 2.09 2.04 1.92 1.70 1.44 1.19 1.14 1.22 1.21 1.10 0.99 0.94 0.87 0.82 0.78 0.69 0.58 0.60 0.61 0.55 0.50 0.42
0.27 0.18 0.26 0.36 0.51 0.58 0.40 0.46 0.33 0.26 0.37 0.43 0.45 0.45 0.43 0.45 0.49 0.53 0.60 0.66 0.77 0.96 1.15 1.27 1.48 1.76 1.85 1.83 1.83 1.90 1.76 1.55 1.41 1.34 1.29 1.25 1.15 1.05 0.97 0.93 0.91 0.84 0.78 0.71 0.67 0.65 0.64 0.62 0.56
0.29 0.35 0.39 0.45 0.67 0.80 0.48 0.50 0.42 0.39 0.44 0.41 0.40 0.40 0.46 0.51 0.55 0.58 0.63 0.66 0.69 0.79 0.99 1.16 1.24 1.43 1.55 1.54 1.61 1.69 1.61 1.55 1.45 1.30 1.21 1.18 1.13 1.03 0.96 0.91 0.89 0.87 0.81 0.75 0.73 0.74 0.73 0.70 0.63
0.41 0.67 0.93 0.90 0.84 0.62 0.39 0.46 0.49 0.46 0.50 0.50 0.46 0.45 0.52 0.58 0.66 0.69 0.66 0.69 0.69 0.72 0.78 0.94 1.06 1.17 1.30 1.40 1.48 1.49 1.50 1.46 1.41 1.31 1.21 1.15 1.09 1.00 0.93 0.90 0.87 0.86 0.85 0.85 0.85 0.80 0.74 0.73 0.69
0.37 0.50 0.69 0.67 0.52 0.37 0.30 0.43 0.50 0.50 0.50 0.49 0.49 0.51 0.54 0.65 0.76 0.77 0.75 0.83 0.85 0.82 0.78 0.80 0.86 0.91 1.02 1.20 1.30 1.32 1.34 1.29 1.21 1.14 1.07 1.01 0.95 0.94 0.93 0.93 0.93 0.91 0.90 0.87 0.85 0.78 0.71 0.71 0.69
0.42 0.38 0.32 0.62 0.55 0.42 0.33 0.34 0.39 0.42 0.45 0.51 0.54 0.53 0.56 0.68 0.78 0.82 0.85 0.86 0.82 0.76 0.76 0.77 0.82 0.80 0.78 0.87 0.98 1.06 1.11 1.09 1.03 0.97 0.90 0.86 0.84 0.84 0.86 0.90 0.92 0.91 0.86 0.80 0.76 0.70 0.65 0.64 0.63
0.37 0.31 0.45 0.93 0.87 0.55 0.31 0.31 0.47 0.48 0.50 0.50 0.50 0.50 0.54 0.58 0.64 0.71 0.73 0.70 0.67 0.65 0.66 0.71 0.74 0.75 0.69 0.70 0.78 0.89 0.90 0.86 0.82 0.81 0.78 0.71 0.68 0.69 0.71 0.76 0.80 0.79 0.75 0.69 0.65 0.61 0.58 0.57 0.54
0.35 0.40 0.50 0.66 0.63 0.62 0.37 0.42 0.50 0.45 0.44 0.42 0.43 0.46 0.48 0.48 0.47 0.49 0.50 0.52 0.50 0.54 0.60 0.69 0.76 0.76 0.64 0.66 0.74 0.78 0.80 0.79 0.74 0.69 0.68 0.67 0.62 0.60 0.63 0.65 0.67 0.66 0.65 0.63 0.60 0.55 0.50 0.48 0.44
0.26 0.28 0.40 0.73 0.59 0.46 0.41 0.43 0.39 0.35 0.36 0.35 0.37 0.41 0.41 0.42 0.40 0.38 0.36 0.34 0.33 0.35 0.42 0.52 0.60 0.62 0.57 0.57 0.66 0.64 0.64 0.70 0.69 0.65 0.62 0.61 0.57 0.51 0.49 0.51 0.51 0.50 0.50 0.50 0.50 0.49 0.46 0.44 0.42